SCP
0 0 0 0 0 0 0 0 0 0 0 0 0 0 0 0 0 0 0 0 0 0 0 0 0 0 0 0 0 0 0 0 0 0 0 0 0 1
0 0 0 0 0 0 0 0 0 0 0 0 0 0 0 0 0 0 0 0 0 0 0 0 0 0 0 0 0 0 0 0 0 0 0 0 0 0
0 0 0 0 0 0 0 0 0 0 0 0 0 0 0 0 0 0 0 0 0 0 0 0 0 0 0 0 0 0 0 0 0 0 0 0 0 0
0 0 0 0 0 0 0 0 0 0 0 0 0 0 0 0 0 0 0 0 0 0 0 0 0 0 0 0 0 0 0 0 0 0 0 0 0 0
0 0 0 0 0 0 0 0 0 0 0 0 0 0 0 0 0 0 0 0 0 0 0 0 0 0 0 0 0 0 0 0 0 0 0 0 0 0
0 0 0 0 0 0 0 0 0 0 0 0 0 0 0 0 0 0 0 0 0 0 0 0 0 0 0 0 0 0 0 0 0 0 0 0 0 0
0 0 0 0 0 0 0 0 0 0 0 0 0 0 0 0 0 0 0 0 0 0 0 0 0 0 0 0 0 0 0 0 0 0 0 0 0 0
0 0 0 0 0 0 0 0 0 0 0 0 0 0 0 0 0 0 0 0 0 0 0 0 0 0 0 0 0 0 0 0 0 0 0 0 0 0
0 0 0 0 0 0 0 0 0 0 0 0 0 0 0 0 0 0 0 0 0 0 0 0 0 0 0 0 0 0 0 0 0 0 0 0 0 0
0 0 0 0 0 0 0 0 0 0 0 0 0 0 0 0 0 0 0 0 0 0 0 0 0 0 0 0 0 0 0 0 0 0 0 0 0 0
0 0 0 0 0 0 0 0 0 0 0 0 0 0 0 0 0 0 0 0 0 0 0 0 0 0 0 0 0 0 0 0 0 0 0 0 0 0
0 0 0 0 0 0 0 0 0 0 0 0 0 0 0 0 0 0 0 0 0 0 0 0 0 0 0 0 0 0 0 0 0 0 0 0 0 0
0 0 0 0 0 0 0 0 0 0 0 0 0 0 0 0 0 0 0 0 0 0 0 0 0 0 0 0 0 0 0 0 0 0 0 0 0 0
0 0 0 0 0 0 0 0 0 0 0 0 0 0 0 0 0 0 0 0 0 0 0 0 0 0 0 0 0 0 0 0 0 0 0 0 0 0
0 0 0 0 0 0 0 0 0 0 0 0 0 0 0 0 0 0 0 0 0 0 0 0 0 0 0 0 0 0 0 0 0 0 0 0 0 0
0 0 0 0 0 0 0 0 0 0 0 0 0 0 0 0 0 0 0 0 0 0 0 0 0 0 0 0 0 0 0 0 0 0 0 0 0 0
0 0 0 0 0 0 0 0 0 0 0 0 0 0 0 0 0 0 0 0 0 0 0 0 0 0 0 0 0 0 0 0 0 0 0 0 0 0
0 0 0 0 0 0 0 0 0 0 0 0 0 0 0 0 0 0 0 0 0 0 0 0 0 0 0 0 0 0 0 0 0 0 0 0 0 0
0 0 0 0 0 0 0 0 0 0 0 0 0 0 0 0 0 0 0 0 0 0 0 0 0 0 0 0 0 0 0 0 0 0 0 0 0 0
0 0 0 0 0 0 0 0 0 0 0 0 0 0 0 0 0 0 0 0 0 0 0 0 0 0 0 0 0 0 0 0 0 0 0 0 0 0
0 0 0 0 0 0 0 0 0 0 0 0 0 0 0 0 0 0 0 0 0 0 0 0 0 0 0 0 0 0 0 0 0 0 0 0 0 0
0 0 0 0 0 0 0 0 0 0 0 0 0 0 0 0 0 0 0 0 0 0 0 0 0 0 0 0 0 0 0 0 0 0 0 0 0 0
0 0 0 0 0 0 0 0 0 0 0 0 0 0 0 0 0 0 0 0 0 0 0 0 0 0 0 0 0 0 0 0 0 0 0 0 0 0
Wind_Speed
5 5 4 4 3 3 3 3 4 4 5 3 2 2 2 2 3 3 3 4 5 6 5 5 5 6 6 6 6 6 6 5 5 6 6 6 6 6
4 5 5 4 4 3 3 4 4 4 5 3 3 2 3 2 3 2 3 4 5 6 5 5 6 6 6 6 5 6 6 5 5 5 6 6 6 6
5 6 6 5 4 4 4 4 4 4 5 4 3 2 3 3 2 2 2 3 3 5 6 5 5 6 6 6 6 6 6 6 6 6 6 6 7 7
7 7 7 5 6 5 4 5 5 4 5 6 4 3 3 3 3 2 2 3 3 4 5 5 5 6 6 6 6 6 6 6 6 6 6 7 7 7
8 8 7 7 7 5 6 6 5 5 4 5 5 3 3 2 2 2 2 2 2 3 4 5 5 6 5 5 5 6 6 6 7 6 6 6 6 6
8 8 8 8 9 8 7 7 6 5 5 5 4 3 3 3 2 2 2 2 2 2 3 3 4 5 5 5 5 5 5 5 6 6 5 5 5 6
8 8 8 10 11 9 8 7 6 6 5 5 5 4 4 3 4 3 3 2 2 2 2 2 2 2 3 4 5 5 5 6 6 6 6 5 5 6
8 7 7 9 10 13 13 11 10 8 7 6 6 6 6 5 4 4 3 3 3 2 2 3 2 3 3 3 4 6 6 6 6 6 6 6 6 6
7 7 7 7 9 7 9 11 11 12 12 9 8 9 7 7 6 6 5 4 4 3 2 3 2 3 3 3 5 6 6 6 6 7 7 7 7 6
8 7 7 7 7 7 7 7 7 7 9 8 8 8 7 6 7 7 6 4 3 2 3 3 3 3 3 2 4 6 6 6 6 6 6 6 6 6
7 7 7 7 9 10 8 7 7 6 7 8 9 8 9 8 7 4 5 4 4 3 3 3 2 2 2 3 4 5 5 5 6 6 6 6 5 5
5 6 9 9 10 11 8 7 7 6 5 5 5 5 5 6 8 6 6 5 4 3 3 3 3 2 1 2 2 2 3 5 6 6 6 6 5 3
5 5 5 9 10 11 9 7 8 7 5 5 4 4 4 4 4 4 4 5 5 4 4 3 3 2 2 2 2 2 3 3 3 4 5 5 5 4
5 4 5 8 9 9 7 7 8 6 3 3 3 4 3 3 3 3 3 3 4 4 4 4 3 4 3 3 2 2 2 2 2 2 2 4 4 5
5 7 7 7 7 5 5 6 4 3 3 3 3 3 3 3 3 2 2 2 2 2 3 3 3 3 3 3 3 2 2 2 2 2 2 2 3 2
5 5 6 6 5 3 2 2 2 2 2 3 2 2 2 2 2 3 3 2 2 1 1 2 3 3 3 3 3 3 3 3 2 2 2 2 2 3
4 3 2 2 2 2 1 1 1 1 1 2 2 2 2 2 2 2 2 2 3 3 1 0 0 1 2 3 3 3 3 2 2 2 2 2 3 3
4 2 2 2 2 2 2 1 1 1 1 1 1 1 1 2 2 1 2 3 3 3 2 1 1 0 1 1 3 4 3 3 2 2 2 2 3 2
3 3 3 3 3 2 2 1 1 1 1 1 1 1 1 1 1 2 2 2 2 2 2 2 2 2 2 2 2 2 3 2 2 2 2 2 3 3
4 3 3 3 3 3 2 2 2 1 1 0 0 0 0 1 1 2 2 2 2 2 1 2 2 3 4 3 2 2 2 3 2 2 2 1 2 3
4 4 4 3 3 3 3 2 2 1 1 0 0 0 0 1 1 1 2 2 2 2 2 2 2 1 1 2 0 1 1 2 2 2 2 1 1 2
4 4 4 3 3 3 2 2 2 2 1 1 0 0 0 0 1 1 1 2 2 2 2 1 0 1 0 2 2 2 2 2 2 2 2 3 2 3
4 4 4 3 3 3 2 2 2 2 2 1 1 0 0 0 0 0 1 1 1 1 1 1 0 1 0 1 2 1 1 1 1 1 2 4 3 4
Wind_Direction
248 247 251 252 242 238 229 218 224 247 257 249 251 264 264 249 248 231 229 230 230 235 239 241 240 237 237 237 236 236 232 229 232 237 237 233 238 241
250 247 248 251 242 235 231 231 229 232 252 247 244 261 267 264 253 245 233 243 236 233 238 241 235 233 234 236 234 233 229 227 225 229 236 239 242 244
257 251 249 247 242 239 236 234 234 225 244 264 258 258 259 253 259 248 250 235 229 232 235 235 238 239 235 229 229 227 225 226 226 231 240 247 248 250
255 252 253 251 243 240 235 234 234 227 226 249 257 247 252 246 237 231 258 251 229 229 228 234 243 242 234 229 227 224 225 225 227 232 240 247 251 250
251 247 247 243 245 243 239 234 233 236 226 231 246 241 247 239 236 248 251 261 249 233 220 230 244 242 234 231 226 222 222 223 226 231 234 240 245 248
257 247 244 239 238 236 237 233 227 228 225 224 235 233 232 228 211 222 243 251 260 258 234 230 242 249 243 237 229 222 220 222 223 225 230 234 240 246
262 256 249 247 244 240 238 230 222 223 224 223 230 229 222 207 214 214 229 242 262 242 232 236 227 232 240 240 232 223 220 222 223 225 228 233 239 245
262 259 257 254 251 249 246 244 234 226 224 224 232 228 226 215 210 209 210 218 251 230 207 245 221 228 235 231 235 234 227 226 226 229 233 237 239 244
259 256 258 256 256 251 250 249 247 241 234 227 230 227 222 212 203 210 216 222 233 226 209 236 219 230 235 240 240 236 235 234 235 239 238 240 242 244
256 251 250 250 246 249 243 242 244 244 237 230 233 232 226 212 209 214 210 224 242 239 222 234 230 229 242 240 240 236 237 238 242 241 238 241 246 246
264 257 251 247 250 251 244 241 246 249 249 239 240 237 229 228 221 201 195 201 231 233 216 216 216 231 236 233 236 239 243 243 244 242 241 244 246 247
269 261 259 256 253 254 241 233 238 240 236 237 240 244 232 222 227 221 209 208 211 225 207 197 196 177 247 250 232 231 238 248 248 250 255 249 242 229
272 266 261 263 263 262 256 241 238 241 228 226 223 223 222 212 213 217 220 217 215 223 196 180 188 191 201 241 251 233 231 238 238 243 245 247 243 232
281 278 267 265 269 268 259 250 249 246 224 226 222 220 215 211 204 200 206 214 221 224 204 192 198 201 201 230 246 234 236 232 230 243 244 242 241 245
289 289 290 284 283 273 262 257 252 232 215 225 230 224 215 205 193 185 184 193 205 222 214 212 206 210 213 218 224 227 246 245 223 219 227 233 238 230
309 302 304 312 312 300 289 280 261 237 221 223 225 219 204 192 197 194 196 191 197 226 213 203 205 202 221 225 216 232 227 220 212 223 231 246 251 235
317 325 332 331 335 327 315 301 284 255 244 229 218 211 213 209 206 195 194 195 208 215 208 168 174 184 231 220 219 224 222 231 226 229 233 250 253 241
340 345 335 325 316 310 313 321 308 289 259 233 217 209 206 202 197 187 191 191 203 207 199 182 163 110 24 320 230 214 218 228 228 225 223 239 258 255
351 341 330 324 322 322 319 316 304 303 279 234 214 209 209 197 183 191 198 197 208 207 206 196 196 181 201 253 284 227 211 223 225 238 237 239 249 258
351 342 334 329 327 328 324 316 310 314 316 282 233 190 209 185 184 200 208 203 204 199 204 202 205 202 205 211 229 275 260 224 218 232 257 283 273 275
343 340 336 334 335 334 329 326 320 307 310 320 328 360 208 166 184 206 209 210 204 191 203 222 227 217 138 118 159 280 296 293 252 230 221 241 276 270
337 334 333 334 333 332 332 334 338 337 337 332 320 320 219 171 183 201 205 210 206 196 199 211 136 112 149 185 204 234 293 331 352 339 302 252 216 214
331 330 331 331 331 331 332 336 337 332 326 324 331 337 354 353 245 210 206 212 179 162 149 132 65 41 266 187 195 222 243 282 316 358 338 326 298 281